Provincetown, Massachusetts, United States (02657)
Lat: 42.06N, Lon: 70.18W
Wx Zone: MAZ022
Local Info
Past Weather Observations for Today

NOTE: This archive is for the closest National Weather Service station to Provincetown. Information may differ from the station used for current weather conditions.

Click here for Long-term Archive

Time Weather Temperature Dewpoint Humidity Pressure Winds Precip Visibility
16:56
Overcast
Fog And Mist
66°F / 19°C 64°F / 18°C 94% 29.95 in
(1014 mb)
SW 18.4 mph
(SW 30 kph)
0.00 in
(0.00 mm)
2SM
16:14
Overcast
Light Rain
68°F / 20°C 66°F / 19°C 94% 29.95 in
(1014 mb)
SW 11.5 mph
(SW 19 kph)
0.00 in
(0.00 mm)
2SM
16:07
Overcast
Fog And Mist
68°F / 20°C 66°F / 19°C 94% 29.95 in
(1014 mb)
SW 16.1 mph
(SW 26 kph)
- 3SM
15:56
Overcast
68°F / 20°C 66°F / 19°C 94% 29.95 in
(1014 mb)
SW 12.7 mph
(SW 20 kph)
- 10SM
14:56
Overcast
70°F / 21°C 66°F / 19°C 88% 29.95 in
(1014 mb)
SW 13.8 mph
(SW 22 kph)
0.00 in
(0.00 mm)
10SM
13:56
Overcast
68°F / 20°C 66°F / 19°C 94% 29.95 in
(1014 mb)
SW 13.8 mph
(SW 22 kph)
0.01 in
(0.25 mm)
10SM
12:56
Overcast
Light Rain
66°F / 19°C 64°F / 18°C 94% 29.98 in
(1015 mb)
SW 16.1 mph
(SW 26 kph)
0.04 in
(1.02 mm)
7SM
11:56
Overcast
Heavy Rain
68°F / 20°C 66°F / 19°C 94% 29.98 in
(1015 mb)
SW 15 mph
(SW 24 kph)
0.14 in
(3.56 mm)
1 1/2SM
11:32
Overcast
Light Rain
68°F / 20°C 66°F / 19°C 94% 29.98 in
(1015 mb)
SW 15 mph
(SW 24 kph)
0.02 in
(0.51 mm)
5SM
11:28
Overcast
Light Rain
68°F / 20°C 66°F / 19°C 94% 29.98 in
(1015 mb)
SW 15 mph
(SW 24 kph)
0.01 in
(0.25 mm)
5SM
10:56
Overcast
Light Rain
66°F / 19°C 64°F / 18°C 94% 30.01 in
(1016 mb)
SW 12.7 mph
(SW 20 kph)
0.06 in
(1.52 mm)
7SM
10:46
Overcast
Light Rain
66°F / 19°C 64°F / 18°C 94% 30.01 in
(1016 mb)
SW 11.5 mph
(SW 19 kph)
0.05 in
(1.27 mm)
6SM
10:28
Overcast
Light Rain
68°F / 20°C 66°F / 19°C 94% 30.01 in
(1016 mb)
SSE 10.4 mph
(SSE 17 kph)
0.03 in
(0.76 mm)
7SM
09:56
Overcast
Rain
66°F / 19°C 64°F / 18°C 94% 30.01 in
(1016 mb)
SW 10.4 mph
(SW 17 kph)
0.04 in
(1.02 mm)
2 1/2SM
09:25
Overcast
Light Rain
68°F / 20°C 66°F / 19°C 94% 30.01 in
(1016 mb)
SW 10.4 mph
(SW 17 kph)
0.00 in
(0.00 mm)
2 1/2SM
09:17
Overcast
68°F / 20°C 66°F / 19°C 94% 30.01 in
(1016 mb)
SW 11.5 mph
(SW 19 kph)
- 9SM
08:56
Overcast
68°F / 20°C 66°F / 19°C 94% 30.01 in
(1016 mb)
SW 9.2 mph
(SW 15 kph)
0.00 in
(0.00 mm)
10SM
08:15
Overcast
Fog And Mist
63°F / 17°C 63°F / 17°C 100% 30.01 in
(1016 mb)
Calm 0.00 in
(0.00 mm)
3SM
08:02
Overcast
Fog And Mist
61°F / 16°C 61°F / 16°C 100% 30.04 in
(1017 mb)
Calm 0.00 in
(0.00 mm)
4SM
07:58
Overcast
Light Rain
61°F / 16°C 61°F / 16°C 100% 30.04 in
(1017 mb)
Calm 0.00 in
(0.00 mm)
3SM
07:56
Overcast
Light Rain
61°F / 16°C 61°F / 16°C 100% 30.04 in
(1017 mb)
Calm 0.00 in
(0.00 mm)
1/4SM
07:42
Obscured
Fog
63°F / 17°C 63°F / 17°C 100% 30.04 in
(1017 mb)
NNW 11.5 mph
(NNW 19 kph)
0.00 in
(0.00 mm)
1/4SM
06:56
Obscured
Light Rain
64°F / 18°C 64°F / 18°C 100% 30.01 in
(1016 mb)
SW 10.4 mph
(SW 17 kph)
0.01 in
(0.25 mm)
1/2SM
06:13
Overcast
Fog
63°F / 17°C 63°F / 17°C 100% 30.01 in
(1016 mb)
SSE 5.8 mph
(SSE 9 kph)
- 1/2SM
05:56
Overcast
Fog And Mist
63°F / 17°C 63°F / 17°C 100% 30.01 in
(1016 mb)
S 4.6 mph
(S 7 kph)
0.02 in
(0.51 mm)
1 1/4SM
05:52
Overcast
Light Rain
63°F / 17°C 63°F / 17°C 100% 30.01 in
(1016 mb)
S 3.5 mph
(S 6 kph)
0.02 in
(0.51 mm)
1 1/4SM
05:32
Obscured
Rain
63°F / 17°C 63°F / 17°C 100% 30.04 in
(1017 mb)
S 3.5 mph
(S 6 kph)
0.02 in
(0.51 mm)
1/2SM
05:22
Obscured
Light Rain
63°F / 17°C 63°F / 17°C 100% 30.04 in
(1017 mb)
S 3.5 mph
(S 6 kph)
0.01 in
(0.25 mm)
1SM
04:56
Obscured
Fog
61°F / 16°C 61°F / 16°C 100% 30.04 in
(1017 mb)
Calm - 1/4SM
04:28
Obscured
Fog
61°F / 16°C 61°F / 16°C 100% 30.04 in
(1017 mb)
Calm - 1/4SM
03:56
Obscured
Fog
61°F / 16°C 59°F / 15°C 94% 30.04 in
(1017 mb)
Calm 0.01 in
(0.25 mm)
1/2SM
03:19
Obscured
Fog And Mist
59°F / 15°C 57°F / 14°C 94% 30.04 in
(1017 mb)
Calm 0.01 in
(0.25 mm)
3/4SM
02:56
Overcast
Fog And Mist
59°F / 15°C 57°F / 14°C 94% 30.06 in
(1018 mb)
Calm 0.00 in
(0.00 mm)
1 1/4SM
02:46
Overcast
Light Rain
57°F / 14°C 57°F / 14°C 100% 30.06 in
(1018 mb)
Calm 0.00 in
(0.00 mm)
2 1/2SM
01:56
Overcast
Light Rain
57°F / 14°C 57°F / 14°C 100% 30.06 in
(1018 mb)
N 3.5 mph
(N 6 kph)
0.07 in
(1.78 mm)
5SM
01:41
Overcast
Rain
57°F / 14°C 57°F / 14°C 100% 30.06 in
(1018 mb)
Calm 0.06 in
(1.52 mm)
3SM
01:34
Overcast
Light Rain
57°F / 14°C 57°F / 14°C 100% 30.06 in
(1018 mb)
Calm 0.05 in
(1.27 mm)
2 1/2SM
01:20
Overcast
Heavy Rain
57°F / 14°C 55°F / 13°C 94% 30.09 in
(1019 mb)
Calm 0.03 in
(0.76 mm)
1 1/4SM
01:11
Obscured
Light Rain
57°F / 14°C 55°F / 13°C 94% 30.09 in
(1019 mb)
Calm 0.01 in
(0.25 mm)
3/4SM
00:56
Overcast
Fog And Mist
57°F / 14°C 55°F / 13°C 94% 30.09 in
(1019 mb)
Calm 0.00 in
(0.00 mm)
1 1/4SM
00:46
Overcast
Fog And Mist
57°F / 14°C 55°F / 13°C 94% 30.09 in
(1019 mb)
Calm 0.00 in
(0.00 mm)
1 3/4SM
00:28
Overcast
Fog And Mist
57°F / 14°C 55°F / 13°C 94% 30.09 in
(1019 mb)
Calm 0.00 in
(0.00 mm)
2 1/2SM
00:05
Overcast
Fog And Mist
57°F / 14°C 55°F / 13°C 94% 30.09 in
(1019 mb)
Calm 0.00 in
(0.00 mm)
3SM
Time Weather Temperature Dewpoint Humidity Pressure Winds Precip Visibility


Weather for websites

WeatherForYou.com, LLC is not responsible for any damages or problems caused by this service. Current weather conditions are obtained from the closest station including government and personal stations which may have varying degrees of accuracy. Weather forecasts are derived from the NOAA NDFD. Like all things, this site belongs to Jesus Christ... He just trusts us to maintain it. If you have any questions or comments email webmaster@weatherforyou.com

Copyright © 2016, WeatherForYou.com LLC. All rights reserved.